Flag for Poland Weather past 2 weeks in Jastrzębie Zdrój, Poland

Now
67 °F

Clear.


Feels Like: 67 °F
Forecast: 66 / 90 °F
Wind: 3 mph from Southwest

Location: Ostrava / Mosnov

Current Time: Jul 5, 2015 at 2:43:20 AM

Latest Report: Jul 5, 2015 at 2:00 AM


Visibility: 19 mi

Pressure: 30.13 "Hg

Humidity: 71%

Dew point: 57 °F

Location of Jastrzębie ZdrójLocation

Historic Weather in Jastrzębie Zdrój — Graph

°F

Jastrzębie Zdrój temperature yesterday

Maximum temperature yesterday: 88 °F (at 5:00 PM)
Minimum temperature yesterday: 59 °F (at 6:00 AM)
Average temperature yesterday: 75 °F

Past Weeks' High & Low Weather Summary

 TemperatureHumidityPressure
High88 °F (Jul 4, 5:00 PM)99% (Jun 29, 7:00 AM)30.36 "Hg (Jun 29, 7:00 AM)
Low44 °F (Jun 22, 5:00 AM)25% (Jul 4, 5:00 PM)29.72 "Hg (Jun 23, 5:00 AM)
Average62 °F69%30.11 "Hg
* Reported Jun 20 2:00 AM — Jul 5 1:00 AM, Jastrzębie Zdrój, Weather by CustomWeather, © 2015

Note: Actual official high and low records may vary slightly from our data, if they occured in-between our weather recording intervals... More about our weather records

Advertising

Jastrzębie Zdrój weather history for previous 24 hours

 ConditionsComfort  
Time TempWeatherWind HumidityBarometerVisibility
1:00 AM
Sun, Jul 5
64 °FClear.3 mph73%30.14 "Hg19 mi
12:00 AM66 °FClear.2 mph66%30.14 "Hg19 mi
10:00 PM
Sat, Jul 4
75 °FClear.N/A55%30.12 "Hg19 mi
9:00 PM80 °FPassing clouds.2 mph45%30.12 "Hg19 mi
8:00 PM85 °FPassing clouds.1 mph34%30.11 "Hg22 mi
7:00 PM86 °FPassing clouds.2 mph29%30.12 "Hg22 mi
6:00 PM87 °FPassing clouds.N/A25%30.13 "Hg25 mi
5:00 PM88 °FPassing clouds.N/A25%30.14 "Hg25 mi
4:00 PM87 °FPassing clouds.3 mph27%30.15 "Hg22 mi
3:00 PM86 °FPassing clouds.5 mph30%30.17 "Hg22 mi
2:00 PM86 °FPassing clouds.3 mph33%30.19 "Hg22 mi
1:00 PM84 °FPassing clouds.5 mph37%30.20 "Hg22 mi
12:00 PM84 °FPassing clouds.6 mph36%30.22 "Hg22 mi
11:00 AM82 °FPassing clouds.7 mph39%30.23 "Hg22 mi
10:00 AM80 °FPassing clouds.6 mph43%30.24 "Hg19 mi
9:00 AM76 °FPassing clouds.N/A52%30.25 "Hg19 mi
8:00 AM70 °FPassing clouds.2 mph66%30.27 "Hg16 mi
7:00 AM65 °FPassing clouds.2 mph78%30.28 "Hg14 mi
6:00 AM59 °FSunny.2 mph88%30.29 "Hg19 mi
5:00 AM61 °FSunny.3 mph85%30.29 "Hg19 mi
4:00 AM60 °FClear.2 mph89%30.29 "Hg19 mi
3:00 AM61 °FClear.1 mph86%30.30 "Hg16 mi
2:00 AM60 °FClear.2 mph85%30.32 "Hg16 mi
Weather by CustomWeather, © 2015

See weather overviewHow to use our weather pages